OPTUS D2

Last updated on Thu Oct 30 2025 00:02:47 GMT+0000 (Coordinated Universal Time)

1 32252U 07044A 25302.53149927 .00000076 00000+0 00000+0 0 9992 2 32252 1.4740 84.8604 0003297 136.4645 253.4064 0.99340210 66253
UTC large
Height (km)
Speed (km/s)
/
Latitude / Longitude
Inclination (degrees)
Orbital Period (minutes)
Azimuth
Elevation
Range (km)
Doppler Factor

Next 0 passes for location: London (51.5072 / 0.1276)

Sorry there are no passes over London.